DW7473 Weather Reports


Display with metric or nautical units.
time (UTC)temp
F
wind
direction
speed
MPH
gust
MPH
rain 1hr
in
rain 24hr
in
rain mn
in
humidity
%
barometer
mb
20180720195633 83 151 2.0 6.0 0.00 0.00 0.00 49 1020.0
20180720194129 84 102 1.0 8.0 0.00 0.00 0.00 47 1020.0
20180720192629 84 61 3.0 10.0 0.00 0.00 0.00 47 1020.1
20180720191126 84 154 1.0 8.0 0.00 0.00 0.00 47 1020.4
20180720185623 83 88 0.0 9.0 0.00 0.00 0.00 50 1020.5
20180720184122 81 126 3.0 9.0 0.00 0.00 0.00 52 1020.5
20180720182620 82 106 1.0 10.0 0.00 0.00 0.00 54 1020.6
20180720181120 81 94 1.0 10.0 0.00 0.00 0.00 55 1020.9
20180720175619 82 129 1.0 6.0 0.00 0.00 0.00 50 1021.0
20180720174118 81 151 2.0 9.0 0.00 0.00 0.00 51 1021.0
20180720172619 81 169 1.0 7.0 0.00 0.00 0.00 50 1021.2
20180720171118 82 121 3.0 7.0 0.00 0.00 0.00 46 1021.4
20180720165617 83 111 1.0 6.0 0.00 0.00 0.00 48 1021.7
20180720164119 82 119 3.0 9.0 0.00 0.00 0.00 48 1021.7
20180720162615 82 79 4.0 11.0 0.00 0.00 0.00 49 1021.7
20180720161115 82 118 2.0 9.0 0.00 0.00 0.00 52 1021.8
20180720155613 82 200 4.0 9.0 0.00 0.00 0.00 50 1021.8
20180720154112 81 257 3.0 10.0 0.00 0.00 0.00 55 1021.9
20180720152612 80 178 1.0 7.0 0.00 0.00 0.00 57 1022.1
20180720151110 81 124 1.0 8.0 0.00 0.00 0.00 58 1022.0
20180720145612 79 198 1.0 6.0 0.00 0.00 0.00 50 1021.9
20180720144108 80 121 4.0 7.0 0.00 0.00 0.00 50 1021.9
20180720142608 80 111 3.0 8.0 0.00 0.00 0.00 61 1022.0
20180720141104 80 121 0.0 5.0 0.00 0.00 0.00 59 1021.9
20180720135558 80 92 0.0 3.0 0.00 0.00 0.00 65 1021.9
20180720134056 78 169 1.0 3.0 0.00 0.00 0.00 70 1021.8
20180720132550 78 251 0.0 2.0 0.00 0.00 0.00 67 1021.7
20180720131046 76 147 0.0 2.0 0.00 0.00 0.00 75 1021.6
20180720125546 77 163 0.0 2.0 0.00 0.00 0.00 72 1021.6
20180720124039 77 47 0.0 2.0 0.00 0.00 0.00 76 1021.7
20180720122534 75 18 0.0 1.0 0.00 0.00 0.00 79 1021.6
20180720121032 72 17 0.0 1.0 0.00 0.00 0.00 87 1021.7
20180720115526 70 17 0.0 1.0 0.00 0.00 0.00 95 1021.7
20180720114021 67 15 0.0 0.0 0.00 0.00 0.00 98 1021.7
20180720112521 66 15 0.0 1.0 0.00 0.00 0.00 98 1021.6
20180720111012 64 16 0.0 1.0 0.00 0.00 0.00 98 1021.5
20180720105507 62 15 0.0 1.0 0.00 0.00 0.00 98 1021.5
20180720104003 61 313 0.0 0.0 0.00 0.00 0.00 97 1021.3
20180720102501 61 313 0.0 1.0 0.00 0.00 0.00 97 1021.3
20180720100958 61 89 0.0 0.0 0.00 0.00 0.00 97 1021.2
20180720095454 61 89 0.0 0.0 0.00 0.00 0.00 97 1021.2
20180720093953 61 89 0.0 0.0 0.00 0.00 0.00 97 1021.2
20180720092454 62 89 0.0 0.0 0.00 0.00 0.00 97 1021.1
20180720090951 62 89 0.0 0.0 0.00 0.00 0.00 97 1021.0
20180720085452 62 89 0.0 0.0 0.00 0.00 0.00 97 1021.0
20180720083953 62 89 0.0 0.0 0.00 0.00 0.00 96 1020.9
20180720082451 62 89 0.0 0.0 0.00 0.00 0.00 96 1020.9
20180720080948 62 89 0.0 0.0 0.00 0.00 0.00 96 1020.9
20180720075446 62 89 0.0 0.0 0.00 0.00 0.00 96 1020.8
20180720073946 63 90 0.0 0.0 0.00 0.00 0.00 96 1020.9
20180720072446 63 90 0.0 0.0 0.00 0.00 0.00 95 1020.9
20180720070943 63 90 0.0 0.0 0.00 0.00 0.00 95 1020.9
20180720065441 64 90 0.0 0.0 0.00 0.00 0.00 95 1020.9
20180720063940 64 90 0.0 0.0 0.00 0.00 0.00 95 1020.8
20180720062440 64 90 0.0 0.0 0.00 0.00 0.00 95 1020.8
20180720060941 64 90 0.0 0.0 0.00 0.00 0.00 94 1020.9
20180720055437 65 90 0.0 0.0 0.00 0.00 0.00 94 1020.9
20180720053935 65 90 0.0 0.0 0.00 0.00 0.00 94 1020.9
20180720052434 65 90 0.0 0.0 0.00 0.00 0.00 93 1021.0
20180720050935 65 90 0.0 0.0 0.00 0.00 0.00 92 1021.1
20180720045431 65 90 0.0 0.0 0.00 0.00 0.00 92 1021.1
20180720043934 66 90 0.0 0.0 0.00 0.00 0.00 91 1021.1
20180720042431 66 90 0.0 0.0 0.00 0.00 0.00 89 1021.0
20180720040925 67 90 0.0 0.0 0.00 0.00 0.00 89 1021.0
20180720035423 67 90 0.0 0.0 0.00 0.00 0.00 87 1021.0
20180720033922 67 90 0.0 0.0 0.00 0.00 0.00 86 1020.8
20180720030923 68 90 0.0 0.0 0.00 0.00 0.00 83 1020.6
20180720025423 69 90 0.0 0.0 0.00 0.00 0.00 82 1020.6
20180720023919 70 90 0.0 0.0 0.00 0.00 0.00 81 1020.5
20180720022419 70 90 0.0 0.0 0.00 0.00 0.00 79 1020.6
20180720020920 71 90 0.0 0.0 0.00 0.00 0.00 76 1020.3
20180720015420 72 90 0.0 0.0 0.00 0.00 0.00 74 1020.3
20180720013917 72 87 0.0 0.0 0.00 0.00 0.00 73 1020.2
20180720012417 72 87 0.0 3.0 0.00 0.00 0.00 71 1020.0
20180720010917 73 134 0.0 0.0 0.00 0.00 0.00 69 1019.6
20180720005414 73 132 0.0 0.0 0.00 0.00 0.00 68 1019.2
20180720003914 75 169 0.0 3.0 0.00 0.00 0.00 65 1019.0
20180720002414 76 123 0.0 4.0 0.00 0.00 0.00 63 1018.8
20180720000915 77 115 0.0 7.0 0.00 0.00 0.00 61 1018.7
20180719235420 78 134 0.0 6.0 0.00 0.00 0.00 59 1018.8
20180719233914 80 115 1.0 4.0 0.00 0.00 0.00 54 1018.6
20180719232411 83 100 0.0 3.0 0.00 0.00 0.00 48 1018.7
20180719230913 87 15 0.0 3.0 0.00 0.00 0.00 36 1018.6
20180719225410 89 15 1.0 4.0 0.00 0.00 0.00 34 1018.6
20180719223910 90 38 0.0 1.0 0.00 0.00 0.00 35 1018.5
20180719222410 92 27 0.0 1.0 0.00 0.00 0.00 31 1018.6
20180719220909 92 31 0.0 1.0 0.00 0.00 0.00 31 1018.6
20180719215408 91 76 0.0 1.0 0.00 0.00 0.00 35 1018.6
20180719213904 90 75 0.0 2.0 0.00 0.00 0.00 33 1018.6
20180719212409 87 288 0.0 2.0 0.00 0.00 0.00 35 1018.6
20180719210904 87 107 0.0 5.0 0.00 0.00 0.00 36 1018.7
20180719205403 86 287 0.0 3.0 0.00 0.00 0.00 38 1018.8
20180719203904 89 327 0.0 3.0 0.00 0.00 0.00 34 1018.8
20180719202401 90 304 0.0 3.0 0.00 0.00 0.00 33 1018.8
20180719200859 87 287 0.0 2.0 0.00 0.00 0.00 41 1018.9